Regional Weather Roundup
Issued by NWS New Orleans/Baton Rouge, LA

Home | Current Version | Previous Version | Text Only | Print | Product List | Glossary On
Versions: 1 2 3 4 5 6 7 8 9 10 11 12 13 14 15 16 17 18 19 20 21 22 23 24 25 26 27 28 29 30 31 32 33 34 35 36 37 38 39 40 41 42 43 44 45 46 47 48 49 50
180
ASUS44 KLIX 281501
RWRLIX
NEW ORLEANS REGIONAL WEATHER ROUNDUP
NATIONAL WEATHER SERVICE NEW ORLEANS LA
900 AM CST WED JAN 28 2015

NOTE: "FAIR" INDICATES FEW OR NO CLOUDS BELOW 12,000 FEET WITH NO
      SIGNIFICANT WEATHER AND/OR OBSTRUCTIONS TO VISIBILITY.
      SKY/WX - SKY CONDITION AND SIGNIFICANT WEATHER.
      TMP - AIR TEMPERATURE.     DP    - DEWPOINT TEMPERATURE.
      RH  - RELATIVE HUMIDITY.   PRES  - PRESSURE.
      HI  - HEAT INDEX.          WCI   - WIND CHILL INDEX.

*  THESE STATIONS ARE NOT NWS OR FAA STATIONS AND ARE NOT UNDER
   NWS QUALITY CONTROL.

LAZ038-040-048-061>063-065>067-069-281600-
SOUTHEAST LOUISIANA

CITY           SKY/WX    TMP DP  RH WIND       PRES   REMARKS
N.O. AUDUBON     N/A     56  44  65 MISG        N/A
N.O. INTL ARPT SUNNY     54  38  54 E9        30.29R
N.O. LAKEFRONT SUNNY     54  41  61 E15       30.29R
N.O. DOWNTOWN*   N/A     54  39  58 E7        30.29R
SLIDELL        SUNNY     51  35  54 VRB6      30.28R
BATON ROUGE    SUNNY     52  37  56 E12       30.28R
BOOTHVILLE     SUNNY     55  46  71 NE8       30.28R
BELLE CHASSE   SUNNY     55  41  59 E9        30.28R
BOGALUSA*        N/A     49  37  63 CALM      30.31R
GALLIANO*      NOT AVBL
NEW ROADS*     NOT AVBL
GONZALES*      NOT AVBL
HAMMOND*       NOT AVBL
HOUMA*         SUNNY     54  45  71 E9        30.27R
PORT FOURCHON* SUNNY     59  50  72 E9G16     30.30R

$$

MSZ070-080>082-281600-
SOUTHERN MISSISSIPPI

CITY           SKY/WX    TMP DP  RH WIND       PRES   REMARKS
MCCOMB         SUNNY     48  35  60 E7        30.28R
GULFPORT       SUNNY     50  35  56 E9        30.29S
BILOXI         SUNNY     50  36  59 E8        30.29S
PASCAGOULA     SUNNY     48  36  63 VRB6      30.30S
STENNIS ARPT*  SUNNY     50  32  50 E6        30.30R

$$

COASTAL OBSERVATIONS
LAKE AND NEARSHORE STATIONS

STATION/POSITION TIME  TEMP    WIND        PRES    WAVE
                       AIR SEA DIR/SP/G            HT/PER
                 (UTC) (F)     (DEG/KT/KT) (MB)    (FT/S)
PASCAGOULA       1422   47      30/  6/  8 1025.3
WAVELAND YACHT   1422   48      80/ 11/ 13 1024.6
GRAND ISLE       1422   56 59   70/ 11/ 14 1025.1
SOUTHWEST PASS   1422   52 45   50/ 11/ 13 1024.7
NEW CANAL        1422   51 53   80/ 12/ 16 1025.2
SHELL BEACH      1422   52 54   70/ 12/ 14 1025.1

OFFSHORE STATIONS

STATION/POSITION TIME  TEMP    WIND        PRES    WAVE
                       AIR SEA DIR/SP/G            HT/PER
                 (UTC) (F)     (DEG/KT/KT) (MB)    (FT/S)
64 S DAUPHIN ISL 1444   59 67   50/ 16/ 19 1025.0    3/ 5

$$




USA.gov is the U.S. government's official web portal to all federal, state and local government web resources and services.